Home   Weather   Bathurst   Past weeks

Flag for Canada Past Weather in Bathurst, New Brunswick, Canada — Yesterday and Last 2 Weeks

Now
-6 °F

Clear.


Feels Like: -17 °F
Forecast: -8 / 23 °F
Wind: 5 mph from Southwest

Location: Bathurst Airport

Current Time: Jan 16, 2017 at 7:03:21 am

Latest Report: Jan 16, 2017 at 6:00 am


Visibility: 15 mi

Pressure: 30.34 "Hg

Humidity: 77%

Dew Point: -11 °F

Location of BathurstLocation

Past Weather in Bathurst — Graph

°F

Bathurst Temperature Yesterday

Maximum temperature yesterday: 12 °F (at 11:00 am)
Minimum temperature yesterday: -9 °F (at 8:00 am)
Average temperature yesterday: 3 °F

High & Low Weather Summary for the Past Weeks

 TemperatureHumidityPressure
High45 °F (Jan 11, 2:00 pm)100% (Jan 4, 8:00 am)30.70 "Hg (Jan 4, 8:00 am)
Low-17 °F (Jan 9, 10:00 pm)40% (Jan 15, 3:00 pm)29.16 "Hg (Jan 4, 3:20 pm)
Average15 °F75%30.07 "Hg
* Reported Jan 1 5:00 am — Jan 16 5:00 am, Bathurst, Weather by CustomWeather, © 2017

Note: Actual official high and low records may vary slightly from our data, if they occured in-between our weather recording intervals... More about our weather records

Advertising

Bathurst Weather History for the Previous 24 Hours

Scroll right to see more
 ConditionsComfort  
Time TempWeatherWind HumidityBarometerVisibility
5:00 am
Mon, Jan 16
-4 °FClear.6 mph77%30.35 "Hg15 mi
4:00 am-2 °FClear.5 mph71%30.36 "Hg15 mi
3:00 am-6 °FClear.2 mph77%30.37 "Hg15 mi
2:00 am-4 °FClear.3 mph77%30.37 "Hg15 mi
1:00 am-2 °FClear.7 mph71%30.35 "Hg15 mi
12:00 am0 °FClear.7 mph65%30.35 "Hg15 mi
11:00 pm
Sun, Jan 15
-2 °FClear.6 mph71%30.36 "Hg15 mi
10:00 pm-4 °FClear.7 mph71%30.36 "Hg15 mi
9:00 pm3 °FClear.10 mph60%30.34 "Hg15 mi
8:00 pm0 °FClear.No wind65%30.34 "Hg15 mi
7:00 pm3 °FClear.3 mph60%30.33 "Hg15 mi
6:00 pm5 °FClear.7 mph51%30.30 "Hg15 mi
5:00 pm9 °FPassing clouds.8 mph43%30.26 "Hg15 mi
4:00 pm10 °FPassing clouds.9 mph40%30.23 "Hg15 mi
3:00 pm12 °FScattered clouds.12 mph40%30.20 "Hg15 mi
2:00 pm12 °FScattered clouds.16 mph44%30.17 "Hg15 mi
1:00 pm12 °FPartly sunny.10 mph48%30.16 "Hg15 mi
12:00 pm12 °FScattered clouds.14 mph48%30.14 "Hg15 mi
11:00 am12 °FPassing clouds.12 mph57%30.13 "Hg15 mi
10:00 am9 °FPassing clouds.9 mph72%30.12 "Hg15 mi
9:27 am3 °FScattered clouds.6 mph85%30.11 "Hg15 mi
9:04 am-6 °FLight snow. Broken clouds.5 mph84%30.10 "Hg12 mi
8:00 am-9 °FPassing clouds.No wind77%30.08 "Hg15 mi
7:00 am-8 °FClear.No wind77%30.06 "Hg15 mi
Weather by CustomWeather, © 2017

See weather overviewHow to use our weather pages